星链-3059 (STARLINK-3059 )

导读 | 星芒AI

STARLINK-3059 是SpaceX星链计划中的一颗低轨通信卫星,属于第30组发射任务中的成员。该卫星旨在为全球用户提供高速互联网服务,尤其关注网络覆盖不足的偏远地区。它运行在约550公里高的近地轨道,采用先进推进系统和激光通信技术,以提升连接效率和稳定性。作为星链星座的一部分,STARLINK-3059 有助于构建更广泛、更快速的全球互联网网络。

基本信息
目录编号:
49181
目录名称:
STARLINK-3059
国际标识:
2021-082BD
轨道中心:
EARTH
卫星名称:
星链-3059
卫星全名:
星链-3059 (STARLINK-3059 )
卫星状态:
在轨 (已飞行1508 天)
发射日期:
2021-09-14 UTC
国别 :
美国 (US)
星等 :
--
轨道信息
数据来源 国际轨道数据
星历时间: 2025-10-31T05:16:49+0800
9小时前
查看轨道信息
半长轴: 6950.199km
偏心率: 0.0003148
轨道倾角: 69.999°
近地点辐角 272.935°
升交点赤经 261.733°
平近点角 87.145°
近地点: 569.876km
远地点: 574.252km
周期: 96.107分钟
每日圈数: 14.983283
详细信息
固有亮度:
5
最大亮度:
2.5
卫星平台:
Starlink v1.5
覆盖范围:
全球
运营商:
太空探索技术公司
运营商所在国:
美国
制造商(研发单位):
太空探索技术公司
制造商所在国:
美国
使用方式:
暂无
卫星简介
星链(Starlink)计划是由太空探索技术公司(SpaceX)提出的一个巨型低轨卫星互联网星座项目,计划在2019年至2024年间在太空搭建由约1.2万颗卫星组成的“星链”网络,其中1584颗将部署在地球上空550千米处的近地轨道,并从2020年开始工作。该卫星仍在工作。
2D轨道图
3D轨道图
轨道高度分析图
轨道倾角分析图
轨道综合分析图
查看轨道综合分析图